Regional Weather Roundup
Issued by NWS Goodland, KS

Home | Current Version | Previous Version | Graphics & Text | Print | Product List | Glossary On
Versions: 1 2 3 4 5 6 7 8 9 10 11 12 13 14 15 16 17 18 19 20 21 22 23 24 25 26 27 28 29 30 31 32 33 34 35 36 37 38 39 40 41 42 43 44 45 46 47 48 49 50
000
ASUS43 KGLD 311708
RWRGLD

GOODLAND FORECAST AREA HOURLY WEATHER ROUNDUP
NATIONAL WEATHER SERVICE GOODLAND KS
1100 AM MDT TUE MAY 31 2016

...OFFICIAL OBSERVATIONS...

CITY           SKY/WX    TMP DP  RH WIND       PRES   REMARKS
GOODLAND KS    SUNNY     65  48  54 NE14      30.09S
HILL CITY KS   PTSUNNY   69  51  52 N15G23    30.04S
IMPERIAL NEB   SUNNY     61  44  53 N10       30.10F
MCCOOK NEB     SUNNY     66  47  50 N10G20    30.06F
AKRON CO       CLOUDY    58  40  51 E8        30.13S
BURLINGTON CO  SUNNY     63  43  48 NE12      30.11S
LIMON CO       CLOUDY    57  46  66 VRB3      30.14F
$$

...UNOFFICIAL OBSERVATIONS...

CITY           SKY/WX    TMP DP  RH WIND       PRES   REMARKS
GOVE KS          N/A    N/A N/A N/A MISG        N/A
LENORA KS        N/A     65  32  29 MISG        N/A
SHARON SPRINGS   N/A     62  54  75 NE12        N/A
TRIBUNE KS     CLOUDY    64  54  68 N14       30.10
KIT CARSON CO    N/A     61  49  65 MISG        N/A
YUMA CO          N/A     60  46  59 CALM        N/A
$$




USA.gov is the U.S. government's official web portal to all federal, state and local government web resources and services.